Location: Allentsteig
(48.6833°N, 15.3167°E)
Time: 00:39:16
(UTC+00:00)

Cosmos 2298 Rocket - Pass Details

Date: 19 January 2021
Orbit: 775 x 784 km, 74.0° (Epoch: 03 March)

Event Time Altitude Azimuth Distance (km) Brightness Sun altitude
Exits shadow 05:59:46 - 333° (NNW) 3,259 6.8 -7.2°
Reaches altitude 10° 06:02:07 10° 330° (NNW) 2,352 6.1 -6.9°
Maximum altitude 06:07:21 58° 253° (WSW) 918 4.2 -6.1°
Drops below altitude 10° 06:12:33 10° 175° (S) 2,336 6.9 -5.3°
Sets 06:14:57 0° 172° (S) 3,260 7.8 -4.9°
